FW4661 Weather Reports


time (UTC)temp
F
wind
direction
speed
knots
gust
knots
rain 1hr
in
rain 24hr
in
rain mn
in
humidity
%
barometer
mb
20260510043215 52 138 0.0 54.7 0.00 0.00 0.00 68 1021.6
20260510042003 52 123 0.0 20.0 0.00 0.00 0.00 67 1021.3
20260510041004 52 135 0.0 32.2 0.00 0.00 0.00 67 1021.0
20260510040004 52 152 4.3 47.8 0.00 0.00 0.00 67 1020.9
20260510035003 53 121 0.0 31.3 0.00 0.00 0.00 65 1020.4
20260510034004 53 138 5.2 39.1 0.00 0.00 0.00 63 1020.5
20260510033004 53 69 0.0 23.5 0.00 0.00 0.00 61 1020.2
20260510032003 53 123 0.0 42.6 0.00 0.00 0.00 60 1019.8
20260510031003 53 159 0.0 31.3 0.00 0.00 0.00 59 1019.7
20260510030004 53 123 13.0 102.5 0.00 0.00 0.00 59 1019.6
20260510025003 53 174 0.0 81.7 0.00 0.00 0.00 58 1019.1
20260510024003 53 117 18.2 116.4 0.00 0.00 0.00 57 1018.8
20260510023004 54 156 8.7 84.3 0.00 0.00 0.00 55 1018.8
20260510022003 54 162 12.2 77.3 0.00 0.00 0.00 55 1018.3
20260510021003 54 177 5.2 70.4 0.00 0.00 0.00 56 1018.2
20260510020214 54 186 34.8 70.4 0.00 0.00 0.00 56 1018.0
20260510015003 54 147 29.5 106.0 0.00 0.00 0.00 56 1017.6
20260510014004 54 135 35.6 106.0 0.00 0.00 0.00 58 1017.2
20260510013004 54 142 11.3 73.0 0.00 0.00 0.00 60 1017.2
20260510012004 54 132 20.9 110.4 0.00 0.00 0.00 61 1016.9
20260510011003 53 195 59.1 110.4 0.00 0.00 0.00 62 1016.6
20260510010004 53 106 0.9 102.5 0.00 0.00 0.00 64 1016.7
20260510005215 53 164 59.1 102.5 0.00 0.00 0.00 65 1016.5
20260510004003 54 161 53.9 106.0 0.00 0.00 0.00 64 1016.7
20260510003004 54 172 55.6 113.8 0.00 0.00 0.00 64 1016.7
20260510002004 55 175 49.5 97.3 0.00 0.00 0.00 64 1015.9
20260510001003 55 169 45.2 115.6 0.00 0.00 0.00 64 1015.9
20260510000215 55 169 34.8 105.1 0.00 0.00 0.00 62 1016.4
20260509235003 56 120 60.8 114.7 0.00 0.00 0.00 61 1016.2
20260509234003 57 149 21.7 95.6 0.00 0.00 0.00 61 1015.7
20260509233004 57 131 8.7 74.7 0.00 0.00 0.00 62 1015.9
20260509232004 58 146 40.8 91.2 0.00 0.00 0.00 61 1016.0
20260509231003 58 140 40.8 70.4 0.00 0.00 0.00 61 1016.1
20260509230004 59 140 3.5 27.8 0.00 0.00 0.00 61 1015.8
20260509225217 59 137 2.6 37.4 0.00 0.00 0.00 60 1015.7
20260509224004 60 137 8.7 37.4 0.00 0.00 0.00 61 1014.8
20260509223213 61 139 7.8 28.7 0.00 0.00 0.00 61 1015.1
20260509222004 62 132 7.0 27.8 0.00 0.00 0.00 61 1013.9
20260509221004 61 159 12.2 23.5 0.00 0.00 0.00 61 1013.4
20260509220003 60 175 2.6 25.2 0.00 0.00 0.00 62 1013.0
20260509215217 59 200 2.6 31.3 0.00 0.00 0.00 63 1013.2
20260509214003 59 194 4.3 42.6 0.00 0.00 0.00 61 1013.0
20260509213003 58 180 12.2 42.6 0.00 0.00 0.00 62 1013.0
20260509212003 57 197 3.5 42.6 0.00 0.00 0.00 70 1012.7
20260509211003 55 201 3.5 14.8 0.00 0.00 0.00 78 1012.4
20260509210003 52 180 3.5 33.9 0.00 0.00 0.00 84 1012.3
20260509205003 49 212 3.5 21.7 0.00 0.00 0.00 85 1011.7
20260509204003 46 222 1.7 14.8 0.00 0.00 0.00 83 1011.7
20260509203003 45 199 0.0 3.5 0.00 0.00 0.00 81 1011.4
20260509202004 44 225 0.0 3.5 0.00 0.00 0.00 81 1011.4
20260509201217 44 220 0.0 7.8 0.00 0.00 0.00 81 1011.2
20260509200004 44 208 0.0 9.6 0.00 0.00 0.00 81 1011.0
20260509195003 44 180 0.0 0.9 0.00 0.00 0.00 80 1010.9
20260509194004 44 218 0.0 14.8 0.00 0.00 0.00 80 1011.0
20260509193003 44 195 0.0 4.3 0.00 0.00 0.00 80 1010.9
20260509192003 44 225 0.0 2.6 0.00 0.00 0.00 80 1010.7
20260509191003 44 225 0.0 1.7 0.00 0.00 0.00 80 1010.6
20260509190004 44 197 0.0 1.7 0.00 0.00 0.00 80 1010.4
20260509185003 45 192 0.0 3.5 0.00 0.00 0.00 79 1010.4
20260509184004 45 180 0.0 2.6 0.00 0.00 0.00 79 1010.1
20260509183003 45 214 0.0 1.7 0.00 0.00 0.00 79 1010.3
20260509182003 46 237 0.0 7.8 0.00 0.00 0.00 79 1010.4
20260509181004 46 212 0.0 6.1 0.00 0.00 0.00 79 1010.3
20260509180214 46 273 0.9 3.5 0.00 0.00 0.00 79 1009.8
20260509175003 46 220 0.0 6.1 0.00 0.00 0.00 79 1009.8
20260509174216 46 225 0.0 9.6 0.00 0.00 0.00 79 1009.7
20260509173217 46 261 0.0 6.1 0.00 0.00 0.00 79 1009.7
20260509172003 46 0 0.0 0.0 0.00 0.00 0.00 79 1009.6
20260509171004 45 0 0.0 0.0 0.00 0.00 0.00 78 1009.5
20260509170004 45 0 0.0 0.0 0.00 0.00 0.00 78 1009.5
20260509165003 46 0 0.0 0.0 0.00 0.00 0.00 78 1009.7
20260509164003 46 0 0.0 0.0 0.00 0.00 0.00 78 1009.4
20260509163004 46 0 0.0 0.0 0.00 0.00 0.00 78 1009.2
20260509162003 46 0 0.0 0.0 0.00 0.00 0.00 78 1009.3
20260509161003 46 0 0.0 0.0 0.00 0.00 0.00 79 1009.5
20260509160215 46 0 0.0 0.0 0.00 0.00 0.00 79 1009.2
20260509155216 46 0 0.0 0.0 0.00 0.00 0.00 79 1009.3
20260509154003 47 0 0.0 0.0 0.00 0.00 0.00 79 1009.8
20260509153004 47 0 0.0 0.0 0.00 0.00 0.00 79 1009.4
20260509152214 47 0 0.0 0.0 0.00 0.00 0.00 80 1009.5
20260509151004 47 225 0.0 3.5 0.00 0.00 0.00 81 1009.7
20260509150004 47 0 0.0 0.0 0.00 0.00 0.00 82 1009.9
20260509145003 46 357 0.0 7.8 0.00 0.00 0.00 82 1010.1
20260509144213 46 353 0.0 7.8 0.00 0.00 0.00 80 1010.0
20260509143004 46 0 0.0 0.0 0.00 0.00 0.00 80 1010.4
20260509142003 46 0 0.0 0.0 0.00 0.00 0.00 80 1010.5
20260509141003 46 0 0.0 0.0 0.00 0.00 0.00 79 1010.6
20260509140005 46 0 0.0 0.0 0.00 0.00 0.00 79 1010.7
20260509135004 46 0 0.0 0.0 0.00 0.00 0.00 79 1010.7
20260509134003 46 0 0.0 0.0 0.00 0.00 0.00 79 1010.9
20260509133004 46 0 0.0 0.0 0.00 0.00 0.00 79 1011.0
20260509132004 47 0 0.0 0.0 0.00 0.00 0.00 80 1011.1
20260509131003 47 0 0.0 0.0 0.00 0.00 0.00 81 1011.3
20260509130004 47 0 0.0 0.0 0.00 0.00 0.00 81 1011.6
20260509125003 47 0 0.0 0.0 0.00 0.00 0.00 82 1011.5
20260509124214 47 0 0.0 0.0 0.00 0.00 0.00 82 1011.7
20260509123003 47 0 0.0 0.0 0.00 0.00 0.00 82 1011.6
20260509122004 47 0 0.0 0.0 0.00 0.00 0.00 82 1011.7
20260509121003 47 0 0.0 0.0 0.00 0.00 0.00 82 1011.8
20260509120004 47 0 0.0 0.0 0.00 0.00 0.00 82 1011.9
20260509115004 47 0 0.0 0.0 0.00 0.00 0.00 82 1011.7
20260509114004 47 0 0.0 0.0 0.00 0.00 0.00 82 1011.7
20260509113003 47 0 0.0 0.0 0.00 0.00 0.00 82 1012.0
20260509112216 47 0 0.0 0.0 0.00 0.00 0.00 82 1012.0
20260509111003 47 0 0.0 0.0 0.00 0.00 0.00 82 1011.9
20260509110213 47 0 0.0 0.0 0.00 0.00 0.00 82 1012.2
20260509105004 47 0 0.0 0.0 0.00 0.00 0.00 82 1012.0
20260509104004 47 0 0.0 0.0 0.00 0.00 0.00 82 1011.8
20260509103003 47 0 0.0 0.0 0.00 0.00 0.00 82 1011.5
20260509102003 48 0 0.0 0.0 0.00 0.00 0.00 82 1011.7
20260509101004 48 0 0.0 0.0 0.00 0.00 0.00 82 1011.6
20260509100004 48 0 0.0 0.0 0.00 0.00 0.00 81 1011.4
20260509095215 48 0 0.0 0.0 0.00 0.00 0.00 81 1011.5
20260509094004 49 0 0.0 0.0 0.00 0.00 0.00 81 1011.7
20260509093003 49 0 0.0 0.0 0.00 0.00 0.00 82 1011.2
20260509092003 49 0 0.0 0.0 0.00 0.00 0.00 82 1011.3
20260509091214 50 0 0.0 0.0 0.00 0.00 0.00 82 1011.5
20260509090003 50 0 0.0 0.0 0.00 0.00 0.00 81 1011.4
20260509085215 50 0 0.0 0.0 0.00 0.00 0.00 81 1011.5
20260509084004 51 0 0.0 0.0 0.00 0.00 0.00 81 1011.5
20260509083003 51 0 0.0 0.0 0.00 0.00 0.00 81 1011.4
20260509082003 51 0 0.0 0.0 0.00 0.00 0.00 80 1011.2
20260509081214 51 0 0.0 0.0 0.00 0.00 0.00 80 1011.3
20260509080004 51 0 0.0 0.0 0.00 0.00 0.00 80 1011.3
20260509075003 52 0 0.0 0.0 0.00 0.00 0.00 79 1011.4
20260509074004 52 0 0.0 0.0 0.00 0.00 0.00 79 1010.9
20260509073004 53 0 0.0 0.0 0.00 0.00 0.00 78 1010.9
20260509072003 53 0 0.0 0.0 0.00 0.00 0.00 78 1010.8
20260509071004 54 0 0.0 0.0 0.00 0.00 0.00 78 1010.5
20260509070216 54 0 0.0 0.0 0.00 0.00 0.00 78 1010.5
20260509065003 55 0 0.0 0.0 0.00 0.00 0.00 79 1010.5
20260509064003 56 0 0.0 0.0 0.00 0.00 0.00 78 1010.3
20260509063004 56 0 0.0 0.0 0.00 0.00 0.00 78 1010.4
20260509062003 56 360 0.0 0.9 0.00 0.00 0.00 78 1010.4
20260509061003 56 360 0.0 1.7 0.00 0.00 0.00 78 1010.6
20260509060216 56 336 0.0 3.5 0.00 0.00 0.00 78 1010.6
20260509055003 57 0 0.0 0.0 0.00 0.00 0.00 78 1010.4
20260509054004 57 0 0.0 0.0 0.00 0.00 0.00 79 1010.8
20260509053214 57 345 0.0 6.1 0.00 0.00 0.00 78 1010.8
20260509052215 57 354 0.0 12.2 0.00 0.00 0.00 77 1010.8
20260509051216 58 2 0.0 17.4 0.00 0.00 0.00 77 1010.5
20260509050004 58 341 2.6 17.4 0.00 0.00 0.00 76 1010.6
20260509045003 58 355 0.0 20.9 0.00 0.00 0.00 76 1010.7
20260509044003 58 360 0.0 0.9 0.00 0.00 0.00 76 1010.9